Regional Weather Roundup
Issued by NWS

Current Version | Previous Version | Text Only | Print | Product List | Glossary On
Versions: 1 2 3 4 5 6 7 8 9 10 11 12 13 14 15 16 17 18 19 20 21 22 23 24 25 26 27 28 29 30 31 32 33 34 35 36 37 38 39 40 41 42 43 44 45 46 47 48 49 50
000
ASHW40 PHFO 010010
RWRHI

WEATHER ROUNDUP FOR HAWAII
NATIONAL WEATHER SERVICE HONOLULU HI
200 PM HST TUE SEP 30 2014

THIS IS AN AUTOMATED REPORT THAT HAS NOT BEEN QUALITY CONTROLLED.

NOTE..."FAIR" INDICATES FEW OR NO CLOUDS BELOW 12,000 FEET WITH NO
SIGNIFICANT WEATHER AND/OR OBSTRUCTIONS TO VISIBILITY.

* - THESE SITES REPORT LIMITED FIELDS

HIZ001>004-010100-
KAUAI-NIIHAU-

CITY           SKY/WX    TMP DP  RH WIND       PRES   REMARKS
LIHUE APT      MOSUNNY   86  73  65 E7        29.91F HX  93
PORT ALLEN*      N/A     86 N/A N/A SE6         N/A
POIPU*           N/A     88 N/A N/A E5G10       N/A
PRINCEVILLE*   NOT AVBL
KOKOLE POINT*  NOT AVBL
MOLOAA DAIRY*  NOT AVBL
WAIMEA HTS*    NOT AVBL
PUU OPAE*      NOT AVBL
PUU LUA*       NOT AVBL
MAKAHA RIDGE*  NOT AVBL
$$

HIZ005>011-010100-
OAHU-

CITY           SKY/WX    TMP DP  RH WIND       PRES   REMARKS
HONOLULU       MOSUNNY   86  73  65 S10       29.88F HX  93
KALAELOA       SUNNY     87  72  60 S10       29.90F HX  93
KANEOHE MCB      N/A     82  73  74 NE6       29.89F
WHEELER FIELD  TSTM      73  72  94 W3        29.95
BELLOWS*       NOT AVBL
KAHUKU*        NOT AVBL
WHEELER*       NOT AVBL
WAIANAE HARBOR NOT AVBL
DILLINGHAM*      N/A     82  73  74 W2          N/A
KAHUKU TRN*      N/A     88  82  84 E3G10       N/A  HX 108
KAWAILOA*      NOT AVBL
KII*             N/A     82  73  74 E8          N/A
MAKUA RANGE*     N/A     88  75  66 W5          N/A  HX  97
OAHU FOREST NW NOT AVBL
SCHOFIELD BRK*   N/A     66  61  82 MISG        N/A
SCHOFIELD S*   NOT AVBL
WAIANAE VLY*   NOT AVBL
KUAOKALA*      NOT AVBL
HONOULIUULI*   NOT AVBL
MOKUOLOE IS*   NOT AVBL
PALEHUA*       NOT AVBL
WAIAWA PHB*    NOT AVBL
$$

HIZ012>013-010100-
MOLOKAI-

CITY           SKY/WX    TMP DP  RH WIND       PRES   REMARKS
MOLOKAI AIRPT  NOT AVBL
KALAUPAPA      NOT AVBL
MAKAPULAPAI*   NOT AVBL
MOLOKAI 1*     NOT AVBL
PUU ALII*      NOT AVBL
$$

HIZ016-010100-
KAHOOLAWE-

CITY           SKY/WX    TMP DP  RH WIND       PRES   REMARKS
KAHOOLAWE*     NOT AVBL
HAKIOAWA*      NOT AVBL
HONOKANAIA*      N/A     79  72  80 NE3G16    29.91F
KANELOA*         N/A     82  68  61 E12G21    29.15F
KEALIALALO*    NOT AVBL
LUA MAKIKA*    NOT AVBL
$$

HIZ014>015-010100-
LANAI-

CITY           SKY/WX    TMP DP  RH WIND       PRES   REMARKS
LANAI CITY     LGT RAIN  73  73 100 E9        29.98F FOG
LANAI 1*       NOT AVBL
$$

HIZ017>028-010100-
MAUI-

CITY           SKY/WX    TMP DP  RH WIND       PRES   REMARKS
KAHULUI        MOSUNNY   90  69  50 NE16      29.89F HX  94
KAPALUA-W MAUI PTSUNNY   84  72  65 SW7       29.91F
HANA AIRPORT   NOT AVBL
HANA*          NOT AVBL
HALEAKALA SUMM   N/A     54  50  87 NW10        N/A
MAALAEA BAY*   NOT AVBL
HALEAKALA*     NOT AVBL
KAUPO GAP*     NOT AVBL
KULA 1*          N/A     60  59  96 NW5         N/A
$$

HIZ023>026-010100-
BIG ISLAND OF HAWAII COAST AND LOWER SLOPES-

CITY           SKY/WX    TMP DP  RH WIND       PRES   REMARKS
KAILUA KONA    MOSUNNY   86  72  62 S12       29.87F HX  92
HILO           MOSUNNY   86  70  58 E13       29.89F HX  90
HONOKAA*       NOT AVBL
KAWAIHAE MWT*  NOT AVBL
KAWAIHAE*      NOT AVBL
SOUTH POINT*   NOT AVBL
UPOLU AIRPORT* NOT AVBL
KAMUELA*       MOCLDY    81  64  57 N14       30.01S
HAKALAU*         N/A     61  58  89 E3G10       N/A
KALOKO-HONOKO* NOT AVBL
PALI 2*          N/A     72  -8   4 SE14G24     N/A
KEALAKOMO*       N/A     84  73  70 E12         N/A  HX  91
KAUPULEHU*     NOT AVBL
KAPAPALA*        N/A     72  69  90 SE1G7       N/A
LOWER KAHUKU*  NOT AVBL
PUHE CS*       NOT AVBL
PUHO CS*       NOT AVBL
PTA KEAMUKU*     N/A     72  66  83 NW9         N/A
WAIKOLOA*      NOT AVBL
$$

HIZ027>028-010100-
BIG ISLAND OF HAWAII INTERIOR AND SUMMMITS-

CITY           SKY/WX    TMP DP  RH WIND       PRES   REMARKS
BRADSHAW FIELD CLOUDY    70  59  68 W14G24    30.25F
MK VISITOR CEN NOT AVBL
MAUNA KEA*       N/A     41  30  65 NW15        N/A
MAUNA LOA*     NOT AVBL
MAUNA LOA 1*   NOT AVBL
PTA KIPUKA*      N/A    N/A N/A N/A NW8G16      N/A
PTA RANGE 17*    N/A     73  63  68 NW12G18     N/A
PTA WEST*        N/A     54  48  82 NW14        N/A
NENE CABIN*    NOT AVBL
AHUMOA*        NOT AVBL
PTA PORTABLE*  NOT AVBL
PUU MALI*      NOT AVBL
$$

HIC003-010100-
NORTHWEST ISLANDS-

CITY           SKY/WX    TMP DP  RH WIND       PRES   REMARKS
MIDWAY ISLAND  MOSUNNY   86  64  48 CALM      29.94F
MIDWAY NOS*    NOT AVBL
FRENCH FRIGATE NOT AVBL
$$

PHZ110>124-180-010100-
BUOY REPORTS

STATION/POSITION TIME  TEMP    WIND        PRES    WAVE   SWELL
                       AIR SEA DIR/SP/G            HT/PER HT/DIR
                 (UTC) (F)     (DEG/KT/KT) (MB)    (FT/S) (FT/D)
BUOY 51001       NOT AVBL
BUOY 51101       NOT AVBL
BUOY 51100       2300   79 81  120/ 12/ 14 1013.6F
BUOY 51003       2300   82 84  110/  8/ 10 1012.9F   5/17   5
BUOY 51004       NOT AVBL
BARBERS PT BUOY  NOT AVBL
WAIMEA BAY BUOY  0000      84                N/A     3/18
KAILUA BAY BUOY  0000      84                N/A     5/ 8   2/ 10
LANAI BUOY       NOT AVBL
BARBERS PT 2     0000      84                N/A     4/18   3/260
PAUWELA MAUI     0000      81                N/A     5/18
HILO             0000      83                N/A     4/11   2/ 70
KANEOHE BAY BUOY NOT AVBL
HANALEI KAUAI    NOT AVBL
KAHULUI HARBOR   0000   82 82   40/ 11/ 15 1012.1F
HONOLULU HARBOR  0000   83     200/  5/  9 1012.4F
KILO NALU        NOT AVBL
HILO HARBOR      0000   91      90/  5/ 12 1011.7F
MOKUOLOE         0000      84              1012.5F
NAWILIWILI       0000      83                N/A
WHOTS BUOY       NOT AVBL
BUOY 51028       NOT AVBL
$$

......................KEY........................................
  SKY/WX - SKY CONDITIONS/PRESENT WEATHER
  TMP    - TEMPERATURE IN FAHRENHEIT
  DWPT   - DEWPOINT IN FAHRENHEIT
  RH     - RELATIVE HUMIDITY IN PERCENT
  WIND   - DIRECTION AND SPEED /MPH FOR ISLANDS...KTS FOR BUOYS/
  PRES   - MEAN SEA LEVEL PRESSURE IN INCHES OF HG
  VSB    - VISIBILITY IN MILES
  HX     - HEAT INDEX
  WCI    - WIND CHILL INDEX
  VRB    - VARIABLE WIND DIRECTION
  N/A    - NOT AVAILABLE


USA.gov is the U.S. government's official web portal to all federal, state and local government web resources and services.